TimeEST,TemperatureF,Dew PointF,Humidity,Sea Level PressureIn,VisibilityMPH,Wind Direction,Wind SpeedMPH,Gust SpeedMPH,PrecipitationIn,Events,Conditions,WindDirDegrees,DateUTC
12:56 AM,37.9,32.0,79,29.94,10.0,West,6.9,-,N/A,,Scattered Clouds,280,2013-03-03 05:56:00
1:56 AM,37.9,30.0,73,29.93,10.0,WNW,6.9,-,N/A,,Mostly Cloudy,290,2013-03-03 06:56:00
2:56 AM,37.9,28.0,68,29.92,10.0,WNW,6.9,-,N/A,,Mostly Cloudy,290,2013-03-03 07:56:00
3:56 AM,36.0,27.0,70,29.92,10.0,WNW,6.9,-,N/A,,Clear,300,2013-03-03 08:56:00
4:56 AM,35.1,28.0,76,29.94,10.0,WNW,5.8,-,N/A,,Clear,300,2013-03-03 09:56:00
5:56 AM,30.9,27.0,85,29.94,10.0,NW,5.8,-,N/A,,Clear,310,2013-03-03 10:56:00
6:56 AM,30.9,28.0,89,29.96,10.0,NNW,4.6,-,N/A,,Partly Cloudy,330,2013-03-03 11:56:00
7:56 AM,36.0,30.0,79,29.98,10.0,NNW,5.8,-,N/A,,Scattered Clouds,340,2013-03-03 12:56:00
8:56 AM,41.0,26.1,55,29.98,10.0,North,11.5,-,N/A,,Partly Cloudy,360,2013-03-03 13:56:00
9:56 AM,43.0,23.0,45,29.99,10.0,North,6.9,-,N/A,,Scattered Clouds,350,2013-03-03 14:56:00
10:56 AM,46.0,23.0,40,29.98,10.0,North,10.4,-,N/A,,Partly Cloudy,350,2013-03-03 15:56:00
11:56 AM,46.0,24.1,42,29.97,10.0,Variable,4.6,-,N/A,,Mostly Cloudy,0,2013-03-03 16:56:00
12:56 PM,46.9,23.0,39,29.96,10.0,West,9.2,-,N/A,,Mostly Cloudy,280,2013-03-03 17:56:00
1:56 PM,46.9,24.1,41,29.94,10.0,WNW,9.2,-,N/A,,Mostly Cloudy,300,2013-03-03 18:56:00
2:56 PM,46.9,24.1,41,29.93,10.0,West,11.5,-,N/A,,Mostly Cloudy,280,2013-03-03 19:56:00
3:56 PM,46.0,23.0,40,29.93,10.0,WNW,11.5,-,N/A,,Mostly Cloudy,290,2013-03-03 20:56:00
4:56 PM,45.0,23.0,42,29.94,10.0,West,11.5,-,N/A,,Overcast,280,2013-03-03 21:56:00
5:56 PM,43.0,25.0,49,29.97,10.0,West,9.2,-,N/A,,Mostly Cloudy,280,2013-03-03 22:56:00
6:56 PM,41.0,24.1,51,29.99,10.0,WNW,5.8,-,N/A,,Clear,300,2013-03-03 23:56:00
7:56 PM,39.0,24.1,55,30.01,10.0,WSW,4.6,-,N/A,,Clear,250,2013-03-04 00:56:00
8:56 PM,37.0,25.0,62,30.03,10.0,WSW,6.9,-,N/A,,Clear,240,2013-03-04 01:56:00
9:56 PM,37.0,25.0,62,30.04,10.0,WSW,8.1,-,N/A,,Clear,240,2013-03-04 02:56:00
10:56 PM,36.0,24.1,62,30.04,10.0,WSW,6.9,-,N/A,,Clear,250,2013-03-04 03:56:00
11:56 PM,35.1,24.1,64,30.04,10.0,West,9.2,-,N/A,,Clear,260,2013-03-04 04:56:00